This is the latest recevied weather packets stored in our database for station/object WB6ANP. If no packets are shown the sender has not sent any weather packets the latest 10 day(s).
| Time | Temp. | Humidity | Pressure | Rain* | Wind** | Luminosity | Snow |
|---|---|---|---|---|---|---|---|
| 1777429106 | 20° C | 94% | 1011.4 hPa | 0 mm | - | 0 W/m² | - |
| 1777428803 | 20° C | 93% | 1011.1 hPa | 0 mm | - | 0 W/m² | - |
| 1777428499 | 20.56° C | 92% | 1011.4 hPa | 0 mm | - | 0 W/m² | - |
| 1777428195 | 20.56° C | 92% | 1010.8 hPa | 0 mm | - | 0 W/m² | - |
| 1777427890 | 20.56° C | 91% | 1010.8 hPa | 0 mm | - | 0 W/m² | - |
| 1777427586 | 20.56° C | 92% | 1010.4 hPa | 0 mm | - | 0 W/m² | - |
| 1777427283 | 20.56° C | 92% | 1010.2 hPa | 0 mm | - | 0 W/m² | - |
| 1777426981 | 20.56° C | 91% | 1010.2 hPa | 0 mm | - | 0 W/m² | - |
| 1777426678 | 20.56° C | 91% | 1009.9 hPa | 0 mm | - | 0 W/m² | - |
| 1777426374 | 20.56° C | 91% | 1009.9 hPa | 0 mm | - | 0 W/m² | - |
| 1777426070 | 20.56° C | 91% | 1009.5 hPa | 0 mm | - | 0 W/m² | - |
| 1777425765 | 20.56° C | 91% | 1009.6 hPa | 0 mm | - | 1 W/m² | - |
| 1777425459 | 20.56° C | 88% | 1009.5 hPa | 0 mm | - | 2 W/m² | - |
| 1777425156 | 21.11° C | 86% | 1009.6 hPa | 0 mm | - | 3 W/m² | - |
| 1777424853 | 21.11° C | 86% | 1009.6 hPa | 0 mm | - | 6 W/m² | - |
| 1777424548 | 21.11° C | 85% | 1009.7 hPa | 0 mm | - | 9 W/m² | - |
| 1777424244 | 21.67° C | 84% | 1009.6 hPa | 0 mm | - | 14 W/m² | - |
| 1777423941 | 21.67° C | 86% | 1009.5 hPa | 0 mm | - | 20 W/m² | - |
| 1777423637 | 21.67° C | 85% | 1009.8 hPa | 0 mm | - | 32 W/m² | - |
| 1777423333 | 22.22° C | 87% | 1009.7 hPa | 0 mm | - | 36 W/m² | - |
| 1777423028 | 22.22° C | 88% | 1009.8 hPa | 0 mm | - | 40 W/m² | - |
| 1777422725 | 22.22° C | 88% | 1009.8 hPa | 0 mm | - | 43 W/m² | - |
| 1777422424 | 22.22° C | 88% | 1009.3 hPa | 0 mm | - | 38 W/m² | - |
| 1777422120 | 22.78° C | 87% | 1009.3 hPa | 0 mm | - | 67 W/m² | - |
| 1777421818 | 22.78° C | 87% | 1009.4 hPa | 0 mm | - | 83 W/m² | - |
* Rain latest hour (hover to see other rain measurements)
** Current wind speed in m/s (hover to see current wind gust speed)